| time (UTC) | temp C | wind direction | speed KPH | gust KPH | rain 1hr cm | rain 24hr cm | rain mn cm | humidity % | barometer mb |
| 20260504003104 | 22 | 160 | 4.8 | 12.9 | 0.00 | 0.00 | 0.00 | 42 | 1016.6 |
| 20260504001558 | 23 | 162 | 8.0 | 11.3 | 0.00 | 0.00 | 0.00 | 42 | 1016.7 |
| 20260504000059 | 23 | 177 | 8.0 | 16.1 | 0.00 | 0.00 | 0.00 | 42 | 1016.7 |
| 20260503234555 | 23 | 202 | 11.3 | 19.3 | 0.00 | 0.00 | 0.00 | 42 | 1017.0 |
| 20260503233054 | 23 | 192 | 9.7 | 19.3 | 0.00 | 0.00 | 0.00 | 42 | 1016.8 |
| 20260503231552 | 23 | 206 | 11.3 | 20.9 | 0.00 | 0.00 | 0.00 | 43 | 1017.0 |
| 20260503230110 | 23 | 184 | 9.7 | 14.5 | 0.00 | 0.00 | 0.00 | 43 | 1017.2 |
| 20260503224551 | 23 | 181 | 11.3 | 17.7 | 0.00 | 0.00 | 0.00 | 43 | 1017.7 |
| 20260503223109 | 24 | 148 | 14.5 | 22.5 | 0.00 | 0.00 | 0.00 | 44 | 1017.6 |
| 20260503221554 | 25 | 191 | 12.9 | 24.1 | 0.00 | 0.00 | 0.00 | 45 | 1017.6 |
| 20260503220055 | 25 | 172 | 12.9 | 22.5 | 0.00 | 0.00 | 0.00 | 45 | 1017.6 |
| 20260503214557 | 25 | 186 | 16.1 | 27.4 | 0.00 | 0.00 | 0.00 | 46 | 1018.1 |
| 20260503213051 | 25 | 177 | 9.7 | 17.7 | 0.00 | 0.00 | 0.00 | 46 | 1018.3 |
| 20260503211553 | 25 | 174 | 9.7 | 20.9 | 0.00 | 0.00 | 0.00 | 47 | 1018.6 |
| 20260503210054 | 25 | 198 | 11.3 | 24.1 | 0.00 | 0.00 | 0.00 | 48 | 1018.9 |
| 20260503204557 | 25 | 211 | 4.8 | 27.4 | 0.00 | 0.00 | 0.00 | 49 | 1019.2 |
| 20260503203051 | 24 | 210 | 14.5 | 30.6 | 0.00 | 0.00 | 0.00 | 50 | 1019.8 |
| 20260503201553 | 25 | 143 | 14.5 | 25.7 | 0.00 | 0.00 | 0.00 | 51 | 1019.8 |
| 20260503200055 | 25 | 179 | 14.5 | 24.1 | 0.00 | 0.00 | 0.00 | 52 | 1020.1 |
| 20260503194616 | 25 | 186 | 11.3 | 24.1 | 0.00 | 0.00 | 0.00 | 53 | 1020.2 |
| 20260503193105 | 25 | 219 | 11.3 | 24.1 | 0.00 | 0.00 | 0.00 | 54 | 1020.6 |
| 20260503191557 | 24 | 180 | 4.8 | 20.9 | 0.00 | 0.00 | 0.00 | 56 | 1020.8 |
| 20260503190051 | 24 | 211 | 11.3 | 29.0 | 0.00 | 0.00 | 0.00 | 57 | 1021.0 |
| 20260503184553 | 24 | 168 | 17.7 | 24.1 | 0.00 | 0.00 | 0.00 | 59 | 1021.3 |
| 20260503183101 | 24 | 141 | 11.3 | 25.7 | 0.00 | 0.00 | 0.00 | 61 | 1021.5 |
| 20260503181607 | 23 | 198 | 11.3 | 24.1 | 0.00 | 0.00 | 0.00 | 62 | 1021.8 |
| 20260503180056 | 23 | 179 | 8.0 | 20.9 | 0.00 | 0.00 | 0.00 | 64 | 1022.2 |
| 20260503174606 | 24 | 244 | 3.2 | 17.7 | 0.00 | 0.00 | 0.00 | 65 | 1022.6 |
| 20260503173053 | 24 | 172 | 3.2 | 20.9 | 0.00 | 0.00 | 0.00 | 67 | 1022.8 |
| 20260503171555 | 23 | 220 | 8.0 | 24.1 | 0.00 | 0.00 | 0.00 | 68 | 1023.0 |
| 20260503170107 | 23 | 195 | 14.5 | 24.1 | 0.00 | 0.00 | 0.00 | 69 | 1023.1 |
| 20260503150105 | 23 | 0 | 0.0 | 8.0 | 0.00 | 0.00 | 0.00 | 74 | 1024.0 |
| 20260503120107 | 8 | 0 | 0.0 | 1.6 | 0.00 | 0.00 | 0.00 | 68 | 1022.7 |
| 20260503081554 | 11 | 0 | 0.0 | 1.6 | 0.00 | 0.00 | 0.00 | 61 | 1022.4 |
| 20260503071554 | 11 | 0 | 0.0 | 1.6 | 0.00 | 0.00 | 0.00 | 59 | 1022.6 |
| 20260503060103 | 12 | 0 | 0.0 | 3.2 | 0.00 | 0.00 | 0.00 | 57 | 1022.8 |
| 20260503054553 | 12 | 0 | 0.0 | 6.4 | 0.00 | 0.00 | 0.00 | 56 | 1022.9 |
| 20260503053053 | 12 | 0 | 0.0 | 0.0 | 0.00 | 0.00 | 0.00 | 55 | 1022.8 |
| 20260503051550 | 12 | 0 | 0.0 | 1.6 | 0.00 | 0.00 | 0.00 | 55 | 1022.6 |
| 20260503050053 | 12 | 0 | 0.0 | 0.0 | 0.00 | 0.00 | 0.00 | 54 | 1022.6 |
| 20260503044604 | 12 | 0 | 0.0 | 1.6 | 0.00 | 0.00 | 0.00 | 54 | 1022.8 |
| 20260503043056 | 12 | 192 | 0.0 | 1.6 | 0.00 | 0.00 | 0.00 | 53 | 1022.8 |
| 20260503041612 | 13 | 0 | 0.0 | 0.0 | 0.00 | 0.00 | 0.00 | 53 | 1022.7 |
| 20260503040057 | 13 | 0 | 0.0 | 0.0 | 0.00 | 0.00 | 0.00 | 52 | 1022.5 |
| 20260503034558 | 13 | 0 | 0.0 | 0.0 | 0.00 | 0.00 | 0.00 | 52 | 1022.5 |
| 20260503033114 | 13 | 0 | 0.0 | 0.0 | 0.00 | 0.00 | 0.00 | 52 | 1022.3 |
| 20260503031601 | 14 | 0 | 0.0 | 0.0 | 0.00 | 0.00 | 0.00 | 51 | 1022.2 |
| 20260503030109 | 15 | 0 | 0.0 | 0.0 | 0.00 | 0.00 | 0.00 | 51 | 1022.1 |
| 20260503024601 | 15 | 0 | 0.0 | 0.0 | 0.00 | 0.00 | 0.00 | 51 | 1022.0 |
| 20260503023056 | 15 | 0 | 0.0 | 0.0 | 0.00 | 0.00 | 0.00 | 51 | 1021.8 |
| 20260503021554 | 15 | 0 | 0.0 | 0.0 | 0.00 | 0.00 | 0.00 | 51 | 1021.7 |
| 20260503020058 | 16 | 0 | 0.0 | 0.0 | 0.00 | 0.00 | 0.00 | 51 | 1021.4 |
| 20260503014553 | 16 | 0 | 0.0 | 0.0 | 0.00 | 0.00 | 0.00 | 52 | 1021.4 |
| 20260503013053 | 18 | 0 | 0.0 | 0.0 | 0.00 | 0.00 | 0.00 | 52 | 1021.2 |
| 20260503011602 | 19 | 0 | 0.0 | 1.6 | 0.00 | 0.00 | 0.00 | 53 | 1021.0 |
| 20260503010058 | 20 | 158 | 1.6 | 3.2 | 0.00 | 0.00 | 0.00 | 53 | 1021.0 |
| 20260503004551 | 20 | 186 | 1.6 | 3.2 | 0.00 | 0.00 | 0.00 | 54 | 1021.0 |